User: anonymous   Login
Location: Prague
(50.0830°N, 14.4670°E)
Time: 04:41:41
(UTC+01:00)
Language:

ITAMSAT 1 - Orbit

View from above orbital plane
View from above orbital plane
View from above satellite
View from above satellite

Ground track
Ground track

The orbit data is extracted from the following two-line orbital elements,

1 22826U 93061D   21332.79412521  .00000020  00000-0  25511-4 0  9991
2 22826  98.9024 354.2654 0007958 262.4137  97.6141 14.30474245469727
Epoch (UTC): 28 November 2021 19:03:32
Eccentricity: 0.0007958
inclination: 98.9024°
perigee height: 784 km
apogee height: 796 km
right ascension of ascending node: 354.2654°
argument of perigee: 262.4137°
revolutions per day: 14.30474245
mean anomaly at epoch: 97.6141°
orbit number at epoch: 46972

The dashed part of the orbit path shows where the satellite is in the earth's shadow,  

DLR